Content
SEND FEEDBACK

Daily
Averages
Monthly
Summary
Canada

VICTORIA, BRITISH COLUMBIA


Home > North America > Canada > British Columbia
Elevation: 62 feet     Latitude: 48 39N     Longitude: 123 26W

WEATHER
 
SELECT A DAY
Number of Records: 200,603;   Date Range: 1/1/95 - 12/26/14
 
SHARE

PRINT THIS DATA

[ ← Previous Day ]
WEATHER ALMANAC - MAY 22, 2013
[ Next Day → ]
[ °C ]   °F
Weather ElementAverageHighLow
Temperature51.4 °F59 °F (3:00 pm)42.8 °F (2:00 am)
Dewpoint36.4 °F44.6 °F (11:00 am) (7:00 pm)
Humidity68.9 %87 % (2:00 am)48 % (5:00 pm)
Barometer26.03 in29.96 in (11:00 pm) (7:00 pm)
Wind Speed6.9 mph16.1 mph (9:09 pm)
Weather ElementAverage
Visibility24.7 mi
Wind DirectionSSE (155.8 °)

Weather ElementTotal
Precipitation---
Heating Degree Days14.1 (Base 65)
Growing Degree Days0.9 (Base 50)
Averaged from 31 records on May 22, 2013
WEATHER CONDITIONS BREAKOUT
WIND DIRECTION BREAKOUT
WEATHER BY HOUR - MAY 22, 2013
[ °C ]   °F
Local TimeTemperatureDewpointHumidityBarometerVisibilityWind DirectionWind SpeedGust SpeedPrecipitationEventsConditions
1:00 AM44.6 °F39.2 °F81 %29.86 in20.0 miSSW (210°)3.5 mphScattered Clouds
2:00 AM42.8 °F39.2 °F87 %29.86 in30.0 miNW (310°)3.5 mphPartly Cloudy
3:00 AM42.8 °F39.2 °F87 %29.86 in30.0 miWest (260°)3.5 mphMostly Cloudy
4:00 AM46.4 °F41.0 °F81 %29.87 in30.0 miENE (70°)2.3 mphMostly Cloudy
5:00 AM45.0 °F40.0 °F78 %29.87 in28.0 miSW (220°)4.6 mphScattered Clouds
5:00 AM44.6 °F41.0 °F87 %29.87 in30.0 miSSW (210°)3.5 mphMostly Cloudy
6:00 AM42.8 °F37.4 °F81 %29.87 in30.0 miWest (270°)3.5 mphMostly Cloudy
7:00 AM50.0 °F42.8 °F76 %29.86 in30.0 miWest (260°)3.5 mphMostly Cloudy
8:00 AM50.0 °F42.8 °F76 %29.87 in30.0 miSW (230°)2.3 mphScattered Clouds
9:00 AM51.8 °F42.8 °F71 %29.86 in30.0 miWest (260°)2.3 mphMostly Cloudy
10:00 AM55.4 °F42.8 °F63 %29.87 in30.0 miCalmMostly Cloudy
11:00 AM56.0 °F44.0 °F54 %29.87 in28.0 miEast (90°)5.8 mphMostly Cloudy
11:00 AM57.2 °F44.6 °F63 %29.87 in30.0 miEast (90°)4.6 mphMostly Cloudy
12:00 PM57.2 °F42.8 °F59 %29.87 in30.0 miEast (90°)5.8 mphMostly Cloudy
1:00 PM57.2 °F41.0 °F55 %29.88 in30.0 miEast (90°)9.2 mphMostly Cloudy
2:00 PM57.2 °F39.2 °F51 %29.88 in30.0 miESE (120°)3.5 mphMostly Cloudy
3:00 PM59.0 °F41.0 °F51 %29.88 in30.0 miEast (100°)6.9 mphMostly Cloudy
4:00 PM57.2 °F41.0 °F55 %29.89 in30.0 miSE (140°)12.7 mphMostly Cloudy
5:00 PM57.0 °F43.0 °F48 %29.88 in28.0 miESE (120°)5.8 mphScattered Clouds
5:00 PM57.2 °F42.8 °F59 %29.88 in30.0 miESE (120°)6.9 mphMostly Cloudy
6:00 PM57.2 °F41.0 °F55 %29.88 in30.0 miESE (110°)6.9 mphMostly Cloudy
7:00 PM55.4 °F42.8 °F63 %29.90 in30.0 miESE (120°)10.4 mphMostly Cloudy
8:00 PM53.6 °F42.8 °F67 %29.90 in30.0 miSE (130°)10.4 mphMostly Cloudy
9:00 PM51.8 °F42.8 °F71 %29.90 in20.0 miSE (140°)13.8 mphMostly Cloudy
9:09 PM51.8 °F0.0 °F20.0 miSE (140°)16.1 mphRainLight Rain
10:00 PM50.0 °F44.6 °F82 %29.94 in15.0 miSE (130°)12.7 mphRainLight Rain
11:00 PM48.0 °F43.0 °F77 %29.96 in7.0 miSE (140°)11.5 mphRainLight Rain
11:00 PM48.2 °F42.8 °F82 %29.96 in8.0 miSE (140°)11.5 mphRainLight Rain
11:21 PM48.2 °F0.0 °F8.0 miSSE (150°)11.5 mphRainRain
11:47 PM48.2 °F0.0 °F7.0 miSouth (180°)8.1 mphRainHeavy Rain
11:56 PM48.2 °F0.0 °F7.0 miSouth (190°)5.8 mphRainRain
Hourly data recorded from CYYJ, located miles away from Victoria, British Columbia







STORIES FROM OUR PARTNERS